Free Severe Weather Alerts by Email and Text Message   

 
Follow iAlert.com on twitter @ialertcom
Search For Active Alerts in Your Area  
  Hi Guest:  [ Sign-up / Services ] [ Login ]

Current weather by "City, St" or "zip code"  

 

Advertise Here

Hazardous Weather Conditions

Beach Hazards Statement issued August 18 at 12:52PM PDT until August 21 at 12:00AM PDT

Current Conditions: LOS ANGELES, CALIFORNIA

Overcast


66.0 F

Last Updated on Aug 19 2017, 3:51 am PDT
Humidity: 87%
Wind Speed: S 5.8 mph
Barometer 29.94 in
Dewpoint: 62.1 F
Visibility: 10.00 mi
Precip: --
Heat Index: NA
Wind Chill: NA
Current conditions at:

Santa Monica, Santa Monica Municipal Airport, CA (KSMO)

Lat: 34.01 Lon: -118.45

Local Radar Image active severe weather and emergency alerts image image weather storm and storm spotter reports image weather observation monitoring service image
Local
Radar
Active
Alerts
Storm Reports Weather
Monitoring

Weather Alert Notification Services


ialert severe weather and emergency alerts by text message and email ialert daily weather forecast by email and text message service ialert real-time weather-observation monitoring and alert notification service ialert storm report monitoring alert notification

Observation History for LOS ANGELES, CALIFORNIA


Time Wind
(mph)
Vis
(mi)
Weather Precip (in) Temperature (F) Relative
Humidity
Wind
Chill
(°F)
Heat
Index
(°F)
Pressure
Air Dwpt altimeter
(in)
sea level
(mb)
3:51 am PDT S 5.8 10.00 Overcast -- 66.0 62.1 87% NA NA 29.94 1013.8
2:51 am PDT SW 3.5 10.00 Overcast -- 65.0 62.1 90% NA NA 29.95 1013.9
1:51 am PDT SW 4.6 10.00 Overcast -- 66.0 62.1 87% NA NA 29.95 1014.1
12:51 am PDT SW 4.6 10.00 Mostly Cloudy -- 65.0 62.1 90% NA NA 29.96 1014.4
11:51 pm PDT SW 4.6 10.00 A Few Clouds -- 66.0 62.1 87% NA NA 29.96 1014.3
10:51 pm PDT SW 5.8 10.00 Fair -- 66.0 62.1 87% NA NA 29.96 1014.5
9:51 pm PDT SW 4.6 10.00 Overcast -- 66.0 62.1 87% NA NA 29.97 1014.6
8:51 pm PDT SW 6.9 10.00 Overcast -- 66.0 63.0 90% NA NA 29.96 1014.2
7:51 pm PDT SW 9.2 10.00 Mostly Cloudy -- 66.0 63.0 90% NA NA 29.94 1013.8
6:51 pm PDT SW 9.2 10.00 A Few Clouds -- 68.0 63.0 84% NA NA 29.93 1013.4
5:51 pm PDT SW 10.4 10.00 Partly Cloudy -- 70.0 63.0 79% NA NA 29.93 1013.4
4:51 pm PDT SW 11.5 10.00 A Few Clouds -- 71.0 63.0 76% NA NA 29.94 1013.7
3:51 pm PDT SW 12.7 G 17.3 10.00 Fair -- 71.0 63.0 76% NA NA 29.96 1014.3
2:51 pm PDT 6.9 G 17.3 10.00 A Few Clouds -- 72.0 63.0 73% NA NA 29.98 1014.9
1:51 pm PDT SW 11.5 10.00 Fair -- 73.0 63.0 71% NA NA 29.99 1015.4
12:51 pm PDT SW 9.2 10.00 A Few Clouds -- 72.0 62.1 71% NA NA 30.00 1015.7
11:51 am PDT 6.9 10.00 A Few Clouds -- 72.0 62.1 71% NA NA 30.01 1016.1
10:51 am PDT SW 8.1 10.00 A Few Clouds -- 72.0 62.1 71% NA NA 30.02 1016.3
9:51 am PDT 4.6 10.00 A Few Clouds -- 70.0 62.1 76% NA NA 30.02 1016.3
8:51 am PDT SE 3.5 9.00 Overcast -- 68.0 62.1 81% NA NA 30.01 1016.2
7:51 am PDT S 3.5 9.00 Overcast -- 67.0 63.0 87% NA NA 30.01 1016.1
6:51 am PDT N 0.0 8.00 Overcast -- 66.0 62.1 87% NA NA 30.00 1015.8
5:51 am PDT NE 3.5 9.00 Overcast -- 65.0 62.1 90% NA NA 29.98 1015.1
4:51 am PDT E 3.5 10.00 Overcast -- 65.0 63.0 93% NA NA 29.98 1014.8

Regional Weather Observation:


Los Angeles / USC Campus Downtown, CA (KCQT)

Overcast
67.0 F

Burbank - Bob Hope Airport, CA (KBUR)

Fair
63.0 F

Los Angeles, Whiteman Airport, CA (KWHP)

Clear
82.0 F

El Monte, CA (KEMT)

Fair
75.0 F

Los Angeles, Los Angeles International Airport, CA (KLAX)

Overcast
66.0 F

Hawthorne, Hawthorne Municipal Airport, CA (KHHR)

Overcast
67.0 F

Advertise Here


Advertise Here